Showing default

COSMOS 1670, 15930

Orbit data source: Space-Track

COSMOS 1670, 15930 is a payload satellite owned by VMF (CIS) in LEO that was launched on Thu, 01 Aug 1985 UTC via a TSIKLON-2 launch vehicle from the Tyuratam Missile And Space Complex (TTMTR). Payloads include a variety of satellites, spacecraft, and rockets equipped with specific instruments for various scientific and technological missions. These include communications satellites like Starlink; space stations such as the ISS; scientific satellites like the Hubble; Earth observation satellites from companies like Planet Labs, Umbra, and HawkEye 360; GPS; miniature CubeSats for education and research; and military/defense satellites.

Loading next visibility...
COSMOS 1670 details
Identifier
15930, 1985-064A
Orbit
LEO
Last TLE update8 hours ago
Origin
Flag of CISVMF (CIS)
ManufacturerKometa
MissionDefense Sigint
Bus & MotorUS-A REACTOR, Unknown motor
Mass4,300 kg wet, 1,154 kg dry
Launch date (UTC)
1985-08-01 (39 years ago)
Launch vehicle
TSIKLON-2
Launch site
Tyuratam Missile And Space Complex (TTMTR)
Object type
Payload
Rocket body
Debris
Shape & HBRCone + Cyl, 5.8 m
Radar Cross Section6.586 m², Large (>1 m²)

Expand to show TLE details & history

TLE from 8 hours ago
0 COSMOS 1670
1 15930U 85064A   24361.50592845 -.00000025  00000-0  56148-4 0  9991
2 15930  64.9401  95.1582 0077262 230.2227 129.2011 13.83838354979407
Epoch: 2024-12-26T12:08Z
Definitive object data (Epoch: 2024-12-26T12:08:32.218Z)
Latitude-0.00006°
Longitude177.53958°
Altitude988.279 km
Speed7.34 km/s
True Right ascension06h 20m 37s
True Declination0° 00' 00"
Sunlit
Object was in full shadow at TLE epoch
Visualization TLE readout
Latitude-50.47963°
Longitude142.30992°
Altitude950.794 km
Speed7.385 km/s
Apparent Right ascension06h 00m 19s
Apparent Declination-49° 18' 58"
Sunlit
Object is in daylight
Visualization observer readout
Local Sidereal Time19:54:49
Azimuth124.477° SE
Elevation-67.738°
Doppler factor1
Orbital elements
Apogee altitude1,005.531 km
Perigee altitude892.311 km
Semi-major axis7,327.058 km
Eccentricity0.0077262
Inclination64.9401°
RAAN95.1582°
Arg. of periapsis230.2227°
True anomaly129.88301°
Mean anomaly129.2011°
Eccentric anomaly129.54247°
Mean motion3.46058 °/min
BSTAR0.000056148
Orbital period104.03 mins
Loading maneuver chart data...
Loading historical data...
Loading historical data...
Loading historical data...
Loading historical data...
Loading historical data...
Loading historical data...
Loading historical data...

COSMOS 1670 Visibility forecast

Observer location: undefined°, undefined

Span
Click to sort rows by Start time (UTC) header in descending order
Start Az.
Max El. time (UTC)
Max El. Az.
Max El.
End time (UTC)
End Az.
10 mins2024-12-27 07:19:59.283Z173.878° S2024-12-27 07:24:59.283Z113.734° SE31.574°2024-12-27 07:29:59.283Z51.236° ENE
10 mins2024-12-27 09:07:59.283Z248.907° W2024-12-27 09:11:59.283Z303.856° NW33.572°2024-12-27 09:17:59.283Z18.628° NNE
10 mins2024-12-27 16:26:59.283Z341.599° N2024-12-27 16:31:59.283Z58.756° ENE37.574°2024-12-27 16:36:59.283Z125.164° SE
8 mins2024-12-27 18:14:59.283Z297.206° NW2024-12-27 18:18:59.283Z245.542° WSW25.114°2024-12-27 18:22:59.283Z198.844° SSW
|